GW1076 Weather Reports


Display with metric or nautical units.
time (UTC)temp
F
wind
direction
speed
MPH
gust
MPH
rain 1hr
in
rain 24hr
in
rain mn
in
humidity
%
barometer
mb
20260906224032 96 135 5.0 12.0 0.00 0.00 0.00 44 1011.1
20260906223532 97 141 5.0 11.0 0.00 0.00 0.00 43 1011.0
20260906223055 99 139 5.0 9.0 0.00 0.00 0.00 41 1011.0
20260906222532 99 0 0.0 10.0 0.00 0.00 0.00 41 1010.9
20260906222032 98 0 0.0 10.0 0.00 0.00 0.00 42 1011.0
20260906221600 97 108 1.0 9.0 0.00 0.00 0.00 42 1011.1
20260906221033 96 0 0.0 10.0 0.00 0.00 0.00 45 1011.1
20260906220531 96 80 2.0 10.0 0.00 0.00 0.00 45 1011.2
20260906220049 96 110 3.0 11.0 0.00 0.00 0.00 44 1011.4
20260906215535 97 131 4.0 11.0 0.00 0.00 0.00 42 1011.3
20260906215032 98 151 6.0 10.0 0.00 0.00 0.00 42 1011.3
20260906214554 99 131 0.0 13.0 0.00 0.00 0.00 41 1011.3
20260906214034 100 127 8.0 13.0 0.00 0.00 0.00 40 1011.3
20260906213535 101 156 3.0 12.0 0.00 0.00 0.00 39 1011.2
20260906213101 100 173 0.0 10.0 0.00 0.00 0.00 41 1011.3
20260906212532 99 0 1.0 13.0 0.00 0.00 0.00 40 1011.3
20260906212032 98 165 5.0 13.0 0.00 0.00 0.00 41 1011.4
20260906211552 97 153 3.0 13.0 0.00 0.00 0.00 42 1011.4
20260906211032 97 117 5.0 17.0 0.00 0.00 0.00 43 1011.6
20260906210532 97 122 11.0 17.0 0.00 0.00 0.00 41 1011.6
20260906210050 98 0 0.0 10.0 0.00 0.00 0.00 42 1011.6
20260906205532 97 0 1.0 10.0 0.00 0.00 0.00 42 1011.7
20260906205033 98 94 1.0 10.0 0.00 0.00 0.00 41 1011.9
20260906204604 98 133 2.0 12.0 0.00 0.00 0.00 41 1011.9
20260906204032 100 77 4.0 12.0 0.00 0.00 0.00 40 1011.9
20260906203531 99 0 2.0 9.0 0.00 0.00 0.00 40 1012.0
20260906203057 99 0 1.0 12.0 0.00 0.00 0.00 41 1012.1
20260906202532 99 136 4.0 13.0 0.00 0.00 0.00 41 1012.0
20260906202034 99 153 7.0 23.0 0.00 0.00 0.00 41 1012.2
20260906201605 99 102 6.0 23.0 0.00 0.00 0.00 42 1012.2
20260906201032 99 153 1.0 9.0 0.00 0.00 0.00 41 1012.2
20260906200532 99 120 1.0 10.0 0.00 0.00 0.00 41 1012.3
20260906200054 99 0 5.0 11.0 0.00 0.00 0.00 40 1012.4
20260906195531 99 0 1.0 11.0 0.00 0.00 0.00 40 1012.5
20260906195031 98 141 5.0 11.0 0.00 0.00 0.00 41 1012.3
20260906194551 98 0 0.0 18.0 0.00 0.00 0.00 42 1012.4
20260906194032 97 0 2.0 18.0 0.00 0.00 0.00 43 1012.5
20260906193532 97 98 8.0 18.0 0.00 0.00 0.00 44 1012.6
20260906193053 98 124 4.0 12.0 0.00 0.00 0.00 41 1012.7
20260906192532 99 0 1.0 10.0 0.00 0.00 0.00 41 1012.7
20260906192032 98 152 6.0 12.0 0.00 0.00 0.00 43 1012.7
20260906191548 96 0 8.0 12.0 0.00 0.00 0.00 43 1012.8
20260906191032 97 112 0.0 8.0 0.00 0.00 0.00 42 1012.9
20260906190534 97 0 1.0 15.0 0.00 0.00 0.00 43 1012.8
20260906190054 97 0 1.0 15.0 0.00 0.00 0.00 45 1013.0
20260906185532 96 0 1.0 15.0 0.00 0.00 0.00 45 1013.0
20260906185034 95 0 0.0 8.0 0.00 0.00 0.00 45 1013.1
20260906184555 95 0 0.0 8.0 0.00 0.00 0.00 45 1013.2
20260906184034 96 0 1.0 9.0 0.00 0.00 0.00 44 1013.3
20260906183532 97 0 2.0 10.0 0.00 0.00 0.00 44 1013.3
20260906183048 97 0 0.0 10.0 0.00 0.00 0.00 44 1013.4
20260906182532 97 0 5.0 10.0 0.00 0.00 0.00 44 1013.5
20260906182032 96 234 0.0 9.0 0.00 0.00 0.00 45 1013.5
20260906181554 96 105 6.0 9.0 0.00 0.00 0.00 44 1013.6
20260906181031 95 124 0.0 12.0 0.00 0.00 0.00 45 1013.7
20260906180535 95 101 3.0 12.0 0.00 0.00 0.00 45 1013.7
20260906180106 95 0 0.0 10.0 0.00 0.00 0.00 46 1013.9
20260906175533 95 76 0.0 6.0 0.00 0.00 0.00 47 1013.9
20260906175034 94 66 0.0 1.0 0.00 0.00 0.00 48 1014.0
20260906174553 93 0 0.0 1.0 0.00 0.00 0.00 47 1014.0
20260906174032 93 0 0.0 7.0 0.00 0.00 0.00 48 1014.2
20260906173532 94 0 2.0 7.0 0.00 0.00 0.00 46 1014.3
20260906173044 95 67 0.0 15.0 0.00 0.00 0.00 46 1014.4
20260906172531 95 123 0.0 15.0 0.00 0.00 0.00 46 1014.4
20260906172031 95 98 1.0 12.0 0.00 0.00 0.00 47 1014.5
20260906171557 95 65 2.0 12.0 0.00 0.00 0.00 47 1014.4
20260906171031 94 0 0.0 7.0 0.00 0.00 0.00 47 1014.5
20260906170534 94 0 0.0 8.0 0.00 0.00 0.00 48 1014.6
20260906170100 93 111 1.0 13.0 0.00 0.00 0.00 47 1014.7
20260906165536 93 0 4.0 13.0 0.00 0.00 0.00 47 1014.8
20260906165032 93 0 0.0 5.0 0.00 0.00 0.00 48 1014.8
20260906164550 94 0 0.0 4.0 0.00 0.00 0.00 47 1014.9
20260906164032 94 0 0.0 8.0 0.00 0.00 0.00 48 1014.9
20260906163534 93 0 0.0 8.0 0.00 0.00 0.00 49 1015.0
20260906163106 92 5 3.0 8.0 0.00 0.00 0.00 50 1014.9
20260906162534 92 94 0.0 8.0 0.00 0.00 0.00 51 1014.9
20260906162032 92 0 1.0 8.0 0.00 0.00 0.00 51 1014.9
20260906161551 92 0 0.0 2.0 0.00 0.00 0.00 52 1014.9
20260906161033 92 0 0.0 2.0 0.00 0.00 0.00 51 1014.9
20260906160532 92 0 0.0 2.0 0.00 0.00 0.00 52 1014.9
20260906160053 91 0 0.0 5.0 0.00 0.00 0.00 54 1015.0
20260906155532 91 0 0.0 5.0 0.00 0.00 0.00 55 1014.9
20260906155032 91 49 0.0 1.0 0.00 0.00 0.00 56 1014.9
20260906154557 90 0 0.0 1.0 0.00 0.00 0.00 56 1014.8
20260906154032 91 0 0.0 1.0 0.00 0.00 0.00 56 1014.8
20260906153535 91 0 0.0 0.0 0.00 0.00 0.00 55 1014.9
20260906153053 91 0 0.0 0.0 0.00 0.00 0.00 56 1014.9
20260906152534 91 0 0.0 0.0 0.00 0.00 0.00 57 1014.9
20260906152035 90 0 0.0 0.0 0.00 0.00 0.00 58 1014.9
20260906151551 89 0 0.0 0.0 0.00 0.00 0.00 59 1014.9
20260906151032 88 0 0.0 2.0 0.00 0.00 0.00 60 1014.8
20260906150532 88 0 0.0 2.0 0.00 0.00 0.00 60 1014.8
20260906150056 88 0 0.0 2.0 0.00 0.00 0.00 60 1014.7
20260906145532 87 0 0.0 1.0 0.00 0.00 0.00 62 1014.7
20260906145032 87 0 0.0 1.0 0.00 0.00 0.00 62 1014.7
20260906144554 86 0 0.0 1.0 0.00 0.00 0.00 62 1014.7
20260906144030 87 0 0.0 7.0 0.00 0.00 0.00 62 1014.7
20260906143531 87 0 0.0 7.0 0.00 0.00 0.00 63 1014.8
20260906143050 87 218 0.0 1.0 0.00 0.00 0.00 63 1014.7
20260906142531 86 0 0.0 0.0 0.00 0.00 0.00 65 1014.8
20260906142035 86 0 0.0 0.0 0.00 0.00 0.00 65 1014.7
20260906141551 85 0 0.0 0.0 0.00 0.00 0.00 68 1014.7
20260906141032 84 0 0.0 0.0 0.00 0.00 0.00 68 1014.7
20260906140532 84 0 0.0 0.0 0.00 0.00 0.00 68 1014.7
20260906140055 84 0 0.0 0.0 0.00 0.00 0.00 68 1014.6
20260906135535 84 0 0.0 0.0 0.00 0.00 0.00 69 1014.7
20260906135031 83 0 0.0 0.0 0.00 0.00 0.00 71 1014.6
20260906134602 82 0 0.0 0.0 0.00 0.00 0.00 72 1014.4
20260906134032 81 0 0.0 0.0 0.00 0.00 0.00 74 1014.4
20260906133532 80 0 0.0 0.0 0.00 0.00 0.00 76 1014.5
20260906133054 80 0 0.0 0.0 0.00 0.00 0.00 76 1014.4
20260906132534 80 0 0.0 0.0 0.00 0.00 0.00 76 1014.5
20260906132031 80 0 0.0 0.0 0.00 0.00 0.00 76 1014.6
20260906131551 80 0 0.0 0.0 0.00 0.00 0.00 76 1014.5
20260906131034 79 0 0.0 0.0 0.00 0.00 0.00 79 1014.5
20260906130532 78 0 0.0 0.0 0.00 0.00 0.00 83 1014.5
20260906130055 76 0 0.0 0.0 0.00 0.00 0.00 85 1014.4
20260906125532 75 0 0.0 0.0 0.00 0.00 0.00 87 1014.3
20260906125032 73 0 0.0 0.0 0.00 0.00 0.00 87 1014.3
20260906124551 72 0 0.0 0.0 0.00 0.00 0.00 87 1014.3
20260906124035 72 0 0.0 0.0 0.00 0.00 0.00 88 1014.2
20260906123531 71 0 0.0 0.0 0.00 0.00 0.00 88 1014.1
20260906123052 71 0 0.0 0.0 0.00 0.00 0.00 87 1014.1
20260906122534 71 0 0.0 0.0 0.00 0.00 0.00 87 1014.1
20260906122032 71 0 0.0 0.0 0.00 0.00 0.00 87 1014.0
20260906121554 71 0 0.0 0.0 0.00 0.00 0.00 87 1014.0
20260906121033 72 0 0.0 0.0 0.00 0.00 0.00 87 1013.9
20260906120533 72 0 0.0 0.0 0.00 0.00 0.00 87 1013.9
20260906120051 72 0 0.0 0.0 0.00 0.00 0.00 86 1013.7
20260906115532 72 0 0.0 0.0 0.00 0.00 0.00 86 1013.6
20260906115033 72 0 0.0 0.0 0.00 0.00 0.00 86 1013.6
20260906114555 72 0 0.0 0.0 0.00 0.00 0.00 86 1013.7
20260906114034 72 0 0.0 0.0 0.00 0.00 0.00 87 1013.6
20260906113531 72 0 0.0 0.0 0.00 0.00 0.00 86 1013.6
20260906113059 72 0 0.0 0.0 0.00 0.00 0.00 86 1013.4
20260906112533 73 0 0.0 0.0 0.00 0.00 0.00 85 1013.4
20260906112032 73 0 0.0 0.0 0.00 0.00 0.00 84 1013.4
20260906111604 73 0 0.0 0.0 0.00 0.00 0.00 85 1013.3
20260906111033 73 0 0.0 0.0 0.00 0.00 0.00 85 1013.2
20260906110533 73 0 0.0 0.0 0.00 0.00 0.00 84 1013.2
20260906110051 73 0 0.0 0.0 0.00 0.00 0.00 84 1013.1
20260906105531 73 0 0.0 0.0 0.00 0.00 0.00 84 1013.1
20260906105033 73 0 0.0 0.0 0.00 0.00 0.00 84 1013.1
20260906104550 73 0 0.0 0.0 0.00 0.00 0.00 84 1013.1
20260906104032 73 0 0.0 0.0 0.00 0.00 0.00 84 1013.1
20260906103532 73 0 0.0 0.0 0.00 0.00 0.00 84 1013.2
20260906103054 73 0 0.0 0.0 0.00 0.00 0.00 83 1013.2
20260906102532 74 0 0.0 0.0 0.00 0.00 0.00 84 1013.2
20260906102036 74 0 0.0 0.0 0.00 0.00 0.00 84 1013.2
20260906101551 74 0 0.0 0.0 0.00 0.00 0.00 83 1013.1
20260906101031 74 0 0.0 0.0 0.00 0.00 0.00 83 1013.1
20260906100534 74 0 0.0 0.0 0.00 0.00 0.00 83 1013.1
20260906100051 74 0 0.0 0.0 0.00 0.00 0.00 83 1013.1
20260906095534 74 0 0.0 0.0 0.00 0.00 0.00 83 1013.1
20260906095031 74 0 0.0 0.0 0.00 0.00 0.00 83 1013.1
20260906094552 74 0 0.0 0.0 0.00 0.00 0.00 83 1013.0
20260906094032 74 0 0.0 0.0 0.00 0.00 0.00 82 1013.1
20260906093532 74 0 0.0 0.0 0.00 0.00 0.00 82 1013.0
20260906093054 74 0 0.0 0.0 0.00 0.00 0.00 82 1013.0
20260906092535 74 0 0.0 0.0 0.00 0.00 0.00 81 1013.0
20260906092032 74 0 0.0 0.0 0.00 0.00 0.00 81 1013.0
20260906091553 74 0 0.0 0.0 0.00 0.00 0.00 82 1013.0
20260906091033 74 0 0.0 0.0 0.00 0.00 0.00 81 1013.0
20260906090531 74 0 0.0 0.0 0.00 0.00 0.00 81 1013.0
20260906090056 74 0 0.0 0.0 0.00 0.00 0.00 81 1012.9
20260906085532 74 0 0.0 0.0 0.00 0.00 0.00 81 1012.9
20260906085033 74 0 0.0 0.0 0.00 0.00 0.00 80 1012.9
20260906084553 75 0 0.0 0.0 0.00 0.00 0.00 80 1012.9
20260906084033 75 0 0.0 0.0 0.00 0.00 0.00 79 1012.8
20260906083535 75 0 0.0 0.0 0.00 0.00 0.00 79 1012.8
20260906083055 75 0 0.0 0.0 0.00 0.00 0.00 78 1012.8
20260906082531 75 0 0.0 0.0 0.00 0.00 0.00 78 1012.9
20260906082036 76 0 0.0 0.0 0.00 0.00 0.00 78 1012.8
20260906081552 76 0 0.0 0.0 0.00 0.00 0.00 78 1012.8
20260906081032 76 0 0.0 0.0 0.00 0.00 0.00 77 1012.8
20260906080532 76 0 0.0 0.0 0.00 0.00 0.00 76 1012.9
20260906080057 77 0 0.0 0.0 0.00 0.00 0.00 77 1012.9
20260906075531 77 0 0.0 0.0 0.00 0.00 0.00 76 1012.9
20260906075031 77 0 0.0 0.0 0.00 0.00 0.00 76 1012.8
20260906074551 77 0 0.0 0.0 0.00 0.00 0.00 76 1012.9
20260906074032 77 0 0.0 0.0 0.00 0.00 0.00 76 1012.8
20260906073532 77 0 0.0 0.0 0.00 0.00 0.00 75 1012.9
20260906073055 77 0 0.0 0.0 0.00 0.00 0.00 75 1012.9
20260906072532 78 0 0.0 0.0 0.00 0.00 0.00 75 1012.9
20260906072032 78 0 0.0 0.0 0.00 0.00 0.00 75 1012.9
20260906071601 78 0 0.0 0.0 0.00 0.00 0.00 74 1013.0
20260906071032 78 0 0.0 0.0 0.00 0.00 0.00 74 1013.1
20260906070532 78 0 0.0 0.0 0.00 0.00 0.00 74 1013.2
20260906070050 78 0 0.0 0.0 0.00 0.00 0.00 74 1013.3
20260906065532 78 0 0.0 0.0 0.00 0.00 0.00 74 1013.4
20260906065032 78 0 0.0 0.0 0.00 0.00 0.00 74 1013.4
20260906064553 78 0 0.0 0.0 0.00 0.00 0.00 74 1013.4
20260906064031 78 0 0.0 0.0 0.00 0.00 0.00 73 1013.4
20260906063533 78 0 0.0 0.0 0.00 0.00 0.00 73 1013.6
20260906063057 79 0 0.0 0.0 0.00 0.00 0.00 73 1013.4
20260906062533 79 0 0.0 0.0 0.00 0.00 0.00 72 1013.5
20260906062032 79 0 0.0 0.0 0.00 0.00 0.00 72 1013.6
20260906061556 79 0 0.0 0.0 0.00 0.00 0.00 71 1013.7
20260906061031 80 0 0.0 0.0 0.00 0.00 0.00 71 1013.7
20260906060532 80 0 0.0 0.0 0.00 0.00 0.00 71 1013.7
20260906060050 80 0 0.0 0.0 0.00 0.00 0.00 70 1013.8
20260906055534 80 0 0.0 0.0 0.00 0.00 0.00 70 1013.8
20260906055031 80 0 0.0 0.0 0.00 0.00 0.00 69 1013.7
20260906054554 81 0 0.0 0.0 0.00 0.00 0.00 69 1013.7
20260906054035 81 0 0.0 1.0 0.00 0.00 0.00 69 1013.6
20260906053532 81 0 0.0 2.0 0.00 0.00 0.00 68 1013.6
20260906053053 81 0 0.0 2.0 0.00 0.00 0.00 68 1013.6
20260906052535 82 0 0.0 2.0 0.00 0.00 0.00 68 1013.7
20260906052033 82 0 0.0 3.0 0.00 0.00 0.00 67 1013.8
20260906051603 82 0 0.0 4.0 0.00 0.00 0.00 66 1013.8
20260906051034 82 134 0.0 7.0 0.00 0.00 0.00 66 1013.7
20260906050535 83 0 1.0 8.0 0.00 0.00 0.00 65 1013.7
20260906050054 83 141 4.0 8.0 0.00 0.00 0.00 65 1013.7
20260906045536 83 144 3.0 8.0 0.00 0.00 0.00 65 1013.7
20260906045033 83 142 1.0 8.0 0.00 0.00 0.00 65 1013.8
20260906044552 83 0 3.0 8.0 0.00 0.00 0.00 65 1013.8
20260906044033 84 134 2.0 9.0 0.00 0.00 0.00 64 1013.7
20260906043533 84 0 5.0 9.0 0.00 0.00 0.00 64 1013.6
20260906043049 84 126 4.0 11.0 0.00 0.00 0.00 64 1013.6
20260906042532 84 131 5.0 11.0 0.00 0.00 0.00 63 1013.6
20260906042035 84 127 6.0 12.0 0.00 0.00 0.00 63 1013.6
20260906041555 85 134 8.0 12.0 0.00 0.00 0.00 63 1013.5
20260906041036 85 120 6.0 12.0 0.00 0.00 0.00 63 1013.5
20260906040533 85 137 5.0 11.0 0.00 0.00 0.00 63 1013.5
20260906040054 85 122 5.0 10.0 0.00 0.00 0.00 63 1013.5
20260906035533 85 139 5.0 9.0 0.00 0.00 0.00 62 1013.4
20260906035034 84 132 5.0 9.0 0.00 0.00 0.00 62 1013.5
20260906034553 84 122 3.0 7.0 0.00 0.00 0.00 60 1013.4
20260906034033 84 124 2.0 8.0 0.00 0.00 0.00 59 1013.4
20260906033536 84 117 1.0 8.0 0.00 0.00 0.00 58 1013.3
20260906033048 84 109 1.0 8.0 0.00 0.00 0.00 58 1013.3
20260906032533 84 110 1.0 7.0 0.00 0.00 0.00 57 1013.2
20260906032035 84 124 1.0 6.0 0.00 0.00 0.00 58 1013.2
20260906031551 83 105 1.0 6.0 0.00 0.00 0.00 58 1013.2
20260906031034 83 0 0.0 1.0 0.00 0.00 0.00 57 1013.0
20260906030534 83 0 0.0 0.0 0.00 0.00 0.00 57 1013.1
20260906030053 83 0 0.0 0.0 0.00 0.00 0.00 56 1012.9
20260906025534 84 0 0.0 0.0 0.00 0.00 0.00 56 1012.8
20260906025034 84 0 0.0 0.0 0.00 0.00 0.00 56 1012.7
20260906024619 83 0 0.0 0.0 0.00 0.00 0.00 56 1012.6
20260906024033 83 0 0.0 0.0 0.00 0.00 0.00 56 1012.5
20260906023533 83 0 0.0 0.0 0.00 0.00 0.00 56 1012.5
20260906023053 83 0 0.0 0.0 0.00 0.00 0.00 56 1012.5
20260906022533 84 0 0.0 0.0 0.00 0.00 0.00 55 1012.4
20260906022037 84 0 0.0 0.0 0.00 0.00 0.00 55 1012.4
20260906021553 84 0 0.0 0.0 0.00 0.00 0.00 55 1012.3
20260906021033 84 0 0.0 0.0 0.00 0.00 0.00 53 1012.3
20260906020534 85 0 0.0 0.0 0.00 0.00 0.00 53 1012.2
20260906020059 85 0 0.0 0.0 0.00 0.00 0.00 52 1012.0
20260906015534 85 0 0.0 0.0 0.00 0.00 0.00 52 1012.0
20260906015033 85 0 0.0 0.0 0.00 0.00 0.00 52 1011.9
20260906014602 85 0 0.0 0.0 0.00 0.00 0.00 51 1011.8
20260906014033 86 0 0.0 0.0 0.00 0.00 0.00 50 1011.8
20260906013534 86 0 0.0 0.0 0.00 0.00 0.00 49 1011.7
20260906013054 87 0 0.0 0.0 0.00 0.00 0.00 49 1011.6
20260906012533 88 0 0.0 0.0 0.00 0.00 0.00 48 1011.5
20260906012033 88 0 0.0 0.0 0.00 0.00 0.00 47 1011.5
20260906011553 89 0 0.0 0.0 0.00 0.00 0.00 46 1011.5
20260906011033 90 0 0.0 0.0 0.00 0.00 0.00 46 1011.5
20260906010533 90 0 0.0 0.0 0.00 0.00 0.00 45 1011.4
20260906010113 91 0 0.0 0.0 0.00 0.00 0.00 44 1011.4
20260906005534 91 0 0.0 0.0 0.00 0.00 0.00 43 1011.3
20260906005037 92 0 0.0 0.0 0.00 0.00 0.00 43 1011.4
20260906004554 93 0 0.0 4.0 0.00 0.00 0.00 42 1011.3
20260906004031 93 0 0.0 4.0 0.00 0.00 0.00 41 1011.2
20260906003534 94 0 0.0 4.0 0.00 0.00 0.00 40 1011.1
20260906003110 94 0 0.0 8.0 0.00 0.00 0.00 40 1011.2
20260906002533 94 136 4.0 8.0 0.00 0.00 0.00 40 1011.1
20260906002036 95 128 3.0 8.0 0.00 0.00 0.00 40 1011.2
20260906001551 95 129 3.0 7.0 0.00 0.00 0.00 40 1011.2
20260906001036 95 0 0.0 6.0 0.00 0.00 0.00 39 1011.2
20260906000533 96 152 1.0 7.0 0.00 0.00 0.00 39 1011.2
20260906000104 96 153 2.0 9.0 0.00 0.00 0.00 39 1011.2
20260905235533 96 134 3.0 10.0 0.00 0.00 0.00 39 1011.2
20260905235034 96 143 2.0 11.0 0.00 0.00 0.00 39 1011.1
20260905234603 96 161 6.0 11.0 0.00 0.00 0.00 39 1011.0
20260905234033 96 167 6.0 14.0 0.00 0.00 0.00 38 1011.0
20260905233534 96 172 6.0 14.0 0.00 0.00 0.00 38 1011.0
20260905233053 96 144 6.0 11.0 0.00 0.00 0.00 38 1011.0
20260905232533 96 136 7.0 11.0 0.00 0.00 0.00 38 1011.0
20260905232034 96 125 3.0 11.0 0.00 0.00 0.00 37 1011.0
20260905231552 97 131 5.0 13.0 0.00 0.00 0.00 37 1011.0
20260905231034 97 125 1.0 15.0 0.00 0.00 0.00 37 1010.9
20260905230535 97 120 9.0 15.0 0.00 0.00 0.00 36 1011.0
20260905230100 97 138 5.0 11.0 0.00 0.00 0.00 36 1010.9
20260905225533 97 150 3.0 12.0 0.00 0.00 0.00 37 1011.0
20260905225033 97 0 2.0 12.0 0.00 0.00 0.00 37 1010.9
20260905224604 97 82 2.0 12.0 0.00 0.00 0.00 36 1011.0